056  
ASUS41 KAKQ 200015  
RWRAKQ  
 
REGIONAL WEATHER ROUNDUP  
NATIONAL WEATHER SERVICE WAKEFIELD VA  
800 PM EDT MON APR 19 2021  
 
NOTE: "FAIR" INDICATES FEW OR NO CLOUDS BELOW 12,000 FEET WITH NO  
SIGNIFICANT WEATHER AND/OR S TO VISIBILITY
. * = DENOTES  
STATION MAY NOT REPORT PRECIPITATION (E.G., RAIN,SNOW,ETC.),
 
THUNDER OR FOG.  
 
VAZ042-051-052>054-056-200100-  
NORTHERN VIRGINIA  
 
CITY SKY/WX TMP DP RH WIND PRES REMARKS
 
WASH NATIONAL PTCLDY 58 45 62 S9 29.88R  
DULLES PTCLDY 58 43 57 S6 29.86R  
FORT BELVOIR CLEAR 56 47 71 CALM 29.88R  
QUANTICO CLEAR 58 45 62 SE6 29.89S  
FREDERICKSBRG* CLEAR 56 47 73 CALM 29.88S  
STAFFORD* CLEAR 55 40 58 CALM 29.92S  
WARRENTON CLEAR 58 44 60 SE3 29.87R  
CULPEPER* CLEAR 59 45 58 CALM 29.88R  
MANASSAS* CLEAR 55 46 71 S7 29.88R  
LEESBURG* CLEAR 59 46 63 S6 29.87R  
WINCHESTER PTCLDY 54 43 66 CALM 29.84R  
FRONT ROYAL* FAIR 59 43 55 CALM 29.84R  
LURAY* FAIR 63 28 27 NW7 29.86R  

 
 
VAZ048-049-060>072-079>083-200100-  
CENTRAL AND SOUTH CENTRAL VIRGINIA  
 
CITY SKY/WX TMP DP RH WIND PRES REMARKS
 
RICHMOND PTCLDY 54 48 80 S6 29.89R  
CHESTERFIELD* FAIR 54 51 90 CALM 29.90  
PETERSBURG* CLEAR 49 47 93 CALM 29.91R  
HANOVER CLEAR 53 48 83 CALM 29.90R  
TAPPAHANNOCK* CLEAR 49 49 100 CALM 29.90S  
QUINTON* FAIR 51 49 93 CALM 29.89S  
CHARLOTTSVILLE CLEAR 59 46 62 S7 29.87R  
GORDONSVILLE* FAIR 56 48 74 CALM 29.88R  
ORANGE* CLEAR 55 45 67 CALM 29.89R  
LOUISA* CLEAR 51 48 91 SE3 29.93R  
BUMPASS* FAIR 52 48 87 CALM 29.88S  
FARMVILLE* CLEAR 53 47 82 CALM 29.88R  
CREWE* FAIR 52 49 91 CALM 29.89S  
FORT PICKETT* FAIR 54 47 77 CALM 29.90S  
CHASE CITY* FAIR 55 49 81 S6 29.89S  
CLARKSVILLE* FAIR 54 48 82 CALM 29.89S  
SOUTH HILL* CLEAR 53 50 90 CALM 29.96R  
LAWRENCEVILLE* FAIR 52 48 87 CALM 29.91R  
EMPORIA* CLEAR 52 50 93 CALM 29.93R  

 
 
VAZ088>098-200100-  
SOUTHEAST VIRGINIA  
 
CITY SKY/WX TMP DP RH WIND PRES REMARKS
 
NORFOLK PTCLDY 53 49 86 CALM 29.89R  
VIRGINIA BEACH PTCLDY 53 48 83 NW6 29.88R  
NORFOLK NAVAL MOCLDY 53 48 83 N5 29.90R  
WEST POINT* CLEAR 50 49 95 CALM 29.90R  
SALUDA* MOCLDY 50 50 100 CALM 29.90R  
NEWPORT NEWS CLEAR 50 48 93 CALM 29.90R  
LANGLEY AFB PTCLDY 52 52 100 NW5 29.89R  
FORT EUSTIS NOT AVBL  
WILLIAMSBURG* CLEAR 54 52 94 CALM 29.91R  
HR EXEC AP* MOCLDY 50 50 100 W3 29.91R  
FRANKLIN* CLEAR 50 49 98 CALM 29.91R  
US460-WAKEFLD CLEAR 51 51 100 CALM 29.91R  

 
 
VAZ020-022-025-037-045-200100-  
WEST CENTRAL AND SOUTHWEST VIRGINIA  
 
CITY SKY/WX TMP DP RH WIND PRES REMARKS
 
STAUNTON* CLEAR 58 32 37 NW5 29.89R  
WAYNESBORO* FAIR 59 33 37 CALM 29.88R  
HOT SPRINGS VA CLEAR 51 24 34 W8 29.93R  
LYNCHBURG CLEAR 60 45 57 SE3 29.87R  
DANVILLE CLEAR 57 47 69 S3 29.89R  
SOUTH BOSTON* FAIR 56 45 65 CALM 29.89R  
MARTINSVILLE CLEAR 57 43 58 CALM 29.92R  
ROANOKE PTCLDY 60 33 36 NW9 29.90R  
BLACKSBURG PTCLDY 57 34 42 W3 29.94S  
DUBLIN* CLEAR 55 35 48 W5 29.94R  
MARION* CLEAR 58 32 38 W9 29.96S  
HILLSVILLE* CLEAR 56 32 40 NW7 29.92S  
RICHLANDS* FAIR N/A N/A N/A NW5 29.96R  
WISE* CLEAR 54 30 40 W5 29.97S  
ABINGDON* CLEAR 58 25 28 NW3 29.95S  

 
 
MDZ021>025-VAZ099-100-200100-  
SOUTHERN MARYLAND AND THE DELMARVA PENINSULA  
 
CITY SKY/WX TMP DP RH WIND PRES REMARKS
 
PATUXENT RIVER PTCLDY 51 50 96 SE3 29.88R  
BAY BRIDGE APT NOT AVBL  
LEONARDTOWN NOT AVBL  
DOVER MOCLDY 53 47 81 SW6 29.86R  
GEORGETOWN PTCLDY 52 49 89 CALM 29.88R  
EASTON CLEAR 54 48 82 CALM 29.93R  
CAMBRIDGE CLEAR 50 50 100 CALM 29.89R  
SALISBURY PTCLDY 50 47 89 CALM 29.88R  
TANGIER FAIR 53 48 83 NW5 29.89R  
OCEAN CITY PTCLDY 50 49 96 NW5 29.87R  
WALLOPS ISLAND PTCLDY 50 49 96 NW5 29.88R  
ACCOMACK* PTCLDY 48 -22 5 CALM 29.89R  

 
 
NCZ012>017-030>032-200100-  
NORTH CENTRAL AND EASTERN NORTH CAROLINA  
 
CITY SKY/WX TMP DP RH WIND PRES REMARKS
 
ROANOKE RAPIDS FAIR 52 52 100 CALM 29.92R  
RALEIGH PTCLDY 59 44 57 CALM 29.91R  
ELIZABETH CITY PTCLDY 52 49 89 NW8 29.89R  
AHOSKIE* CLEAR 50 50 100 CALM 29.93R  
EDENTON* PTCLDY 54 53 96 CALM 29.92R  
CURRITUCK* PTCLDY 51 51 100 NW3 29.89R  
KILL DEVIL HLS PTCLDY 51 48 89 N6 29.86R  
MANTEO PTCLDY 52 47 83 NE12 29.87R  
CAPE HATTERAS PTCLDY 56 50 80 NE10G24 29.85R  
TARBORO* FAIR 53 50 89 CALM 29.92R  
GOLDSBORO CLEAR 60 45 58 CALM 29.89R  
WASHINGTON CLEAR 53 47 80 NW5 29.93R  
GREENVILLE CLEAR 54 50 87 CALM 29.94R  
NEW BERN CLEAR 57 48 72 N10 29.92R  
WILMINGTON CLEAR 63 45 51 N7 29.89R  

 
 
VAZ048-200100-  
ELSEWHERE  
 
CITY SKY/WX TMP DP RH WIND PRES REMARKS
 
HARRISBURG PA PTCLDY 60 46 59 SE8 29.83R  
BALTIMORE PTCLDY 56 42 59 S6 29.86R  
ANNAPOLIS PTCLDY 54 46 74 S3 29.88R  
ANDREWS AFB CLEAR 53 44 72 S7 29.87R  
PHILADELPHIA PTCLDY 58 42 55 SW12 29.86R  
HENDERSON NC CLEAR 53 45 73 CALM 29.91R  
GREENSBORO PTCLDY 60 35 39 W6 29.89R  
ROCKY MOUNT CLEAR 54 47 77 CALM 29.91R  

 
 
VAZ100-200100-  
MARINE  
 
STATION/POSITION TIME TEMP WIND PRES WAVE SWELL
 
AIR SEA DIR/SP/G HT/PER HT/PER  
(UTC) (F) (DEG/KT/KT) (MB) (FT/S) (FT/S)  
CAPE MAY NJ 2324 53 54 240/ 9/ 10 1010.9  
LEWES DE 2324 53 55 270/ 4/ 5 1011.5  
15NM E FENWICK I 2350 N/A 2/ 9  
OCEAN-CITY-INLET 2324 52 55 330/ 6/ 7 1012.2  
44089 WALLOPS IS 2356 52 N/A 2/10 2/11  
WACHAPREAGUE VA 2324 53 62 10/ 4/ 5 1011.2  
THOMAS POINT MD 0000 54 55 180/ 7/ 7 1012.9R  
GOOSES REEF MD 2348 51 55 1012.9R 0  
COVE POINT MD 2324 53 130/ 4/ 4 1011.7  
SOLOMONS ISLAND 2324 54 58 100/ 2/ 2 1011.6  
BISHOPS HEAD MD 2324 54 59 350/ 2/ 4 1011.8  
PINEY POINT MD 2324 240/ 2/ 3 N/A  
POTOMAC MD 2354 53 57 260/ 2/ 4 1012.4R  
CAMBRIDGE MD 2324 220/ 3/ 4 N/A  
LEWISETTA VA 2324 55 58 CALM / 1 1011.9  
RAPPAHANNOCK LGT 2324 300/ 4/ 4 1012.1  
YORK RVR RNG VA 2324 55 310/ 7/ 8 N/A  
YORKTOWN VA 2324 55 60 320/ 7/ 8 1011.6  
DOMINION TERM VA 2324 56 330/ 6/ 8 1012.1  
KIPTOPEKE VA 2324 59 340/ 3/ 4 N/A  
CAPE HENRY VA 2324 55 350/ 6/ 8 1011.8  
WILLOUBY STN VA 2312 56 CALM / 3 1011.2  
S CRANEY ISL VA 2324 56 10/ 5/ 6 1011.7  
CAPE HENRY BUOY 2356 54 N/A 3/ 5 2/12  
64NM E OF VA BCH 2350 53 30/ 19/ 25 1010.0F 6/ 6 2/ 9  
DUCK PIER NC 2324 53 30/ 17/ 19 1010.5  
44100 DUCK FRF 2326 53 N/A 7/ 6 2/11  
44056 DUCK FRF 2356 55 N/A 4/ 6  
OREGON INLET NC 2318 53 62 20/ 16/ 26 1010.0  
HATTERAS NC 2324 58 66 20/ 22/ 27 1010.2  
CAPE LOOKOUT NC 2300 61 350/ 17/ 20 1010.8R  

 
 
 
CLICK HERE TO GO TO PREVIOUS BULLETINS.

The Nexlab VA Page
The Nexlab NC Page
The Nexlab MD Page Main Text Page